Location: Peterborough
(44.3091°N, 78.3197°W)
Time: 00:34:18
(UTC-04:00)

Vanguard 1 Rocket - Pass Details

Date: 23 March 2023
Orbit: 655 x 4220 km, 34.3° (Epoch: 02 June)

Event Time Altitude Azimuth Distance (km) Brightness Sun altitude
Rises 02:14:36 0° 252° (WSW) 7,802 11.9 -43.1°
Enters shadow 02:14:50 - 252° (WSW) 7,749 11.9 -43.1°
Exits shadow 02:44:30 19° 113° (ESE) 3,004 10.0 -41.0°
Drops below altitude 10° 02:46:12 10° 107° (ESE) 3,430 10.4 -40.8°
Sets 02:48:31 0° 102° (ESE) 4,106 10.9 -40.6°
